STARLINK-33606, 63421

Orbit data source: Space-Track

STARLINK-33606, 63421 is a payload satellite owned by SpaceX/Seattle (US) in LEO that was launched on Mon, 31 Mar 2025 UTC via an FALCON 9 launch vehicle from the Air Force Eastern Test Range (AFETR). Payload-class satellites include a variety of spacecraft equipped with specific instruments for various scientific and technological missions. These include communications satellites like Starlink; space stations such as the ISS; scientific satellites like the Hubble; Earth observation satellites from companies like Planet Labs, Umbra, and HawkEye 360; GPS; miniature CubeSats for education and research; and military/defense satellites.

Loading next visibility...
Identifier
63421, 2025-065Y
Orbit
LEO
Country
Flag of USUS
Related business
Manufacturer
SpaceX/Seattle
Mission
Operational Commercial Communications
Bus & Motor
STARLINK V2MO, Unknown motor
Mass
575 kg wet, ~530 kg dry
Launch date (UTC)
2025-03-31 (1 year ago)
Launch vehicle
FALCON 9
Launch site
Air Force Eastern Test Range (AFETR)
Object type
Payload
Rocket body
Debris
Shape & HBR
Box + 2 Pan, 17.7 m
Radar Cross Section
36.964 m², Large (>1 m²)

Expand to show TLE details & history
Last TLE update: 1 day ago

TLE from 1 day ago
0 STARLINK-33606
1 63421U 25065Y   26170.58240477  .00010577  00000-0  39308-3 0  9993
2 63421  42.9992 251.5347 0001253 269.0319  91.0389 15.27601101 68425
Epoch: 2026-06-19T13:58Z
TLE epoch observation values (Epoch: 2026-06-19T13:58:39.772Z)
Latitude
-0.00001°
Longitude
134.05967°
Altitude
482.777 km
Speed
7.626 km/s
True Right ascension
16h 46m 08s
True Declination
0° 00' 00"
Sunlit
Object was in full shadow at epoch
Visualization orbit readout
Latitude
Unknown
Longitude
Unknown
Altitude
Unknown
Speed
Unknown
Apparent Right ascension
Unknown
Apparent Declination
Unknown
Sunlit
N/A
Visualization observer readout
Local Sidereal Time
07:18:09
Azimuth
Unknown
Elevation
Unknown
Doppler factor
Unknown
Orbital elements
Apogee altitude
485.791 km
Perigee altitude
484.071 km
Semi-major axis
6,863.068 km
Eccentricity
0.00013
Inclination
42.9992°
RAAN
251.5347°
Arg. of periapsis
269.0319°
True anomaly
91.05326°
Mean anomaly
91.0389°
Eccentric anomaly
91.04608°
Mean motion
3.81738 °/min
Orbital period
94.31 mins
BSTAR
0.00039308
Loading maneuver chart data...
Computing Atmospheric mass density...
Loading historical data...
Loading historical data...
Loading historical data...
Loading historical data...
Loading historical data...
Loading historical data...
Loading historical data...

Documentation

Showing up to 5 results
|